When you browse on this site, cookies collect data to enhance your experience and personalize the content and advertising you see.
Visit our Privacy Policy to learn more. By continuing to use the site, you agree to this use of cookies and data.
  • In Hungary
  • List of Countries
  • For 7 days
  • Water Temperature
  • Satellite Maps
  • Weather Map
  • News
  • Weather Widgets
  • user-avatar
    Login

    Hourly Weather Kolsko

    Today, 25 May, Saturday

    Time Temperature Precipitation Wind Pressure Humidity
    00:00 +14°C° 0 mm 2 mps 754 mmHg 76%
    01:00 +14°C° 0 mm 2 mps 753 mmHg 81%
    02:00 +12°C° 0 mm 3 mps 754 mmHg 84%
    03:00 +12°C° 0 mm 3 mps 754 mmHg 87%
    04:00 +11°C° 0 mm 3 mps 754 mmHg 90%
    05:00 +13°C° 0 mm 3 mps 754 mmHg 86%
    06:00 +14°C° 0 mm 3 mps 754 mmHg 83%
    07:00 +16°C° 0 mm 3 mps 754 mmHg 79%
    08:00 +17°C° 0 mm 3 mps 754 mmHg 71%
    09:00 +18°C° 0 mm 4 mps 754 mmHg 63%
    10:00 +20°C° 0 mm 4 mps 755 mmHg 55%
    11:00 +20°C° 0 mm 4 mps 755 mmHg 52%
    12:00 +21°C° 0 mm 4 mps 755 mmHg 49%
    13:00 +22°C° 0 mm 5 mps 755 mmHg 47%
    14:00 +22°C° 0 mm 4 mps 754 mmHg 48%
    15:00 +22°C° 0 mm 4 mps 754 mmHg 49%
    16:00 +22°C° 0 mm 4 mps 754 mmHg 49%
    17:00 +20°C° 0 mm 4 mps 754 mmHg 55%
    18:00 +19°C° 0 mm 3 mps 754 mmHg 60%
    19:00 +18°C° 0 mm 3 mps 754 mmHg 66%
    20:00 +16°C° 0 mm 2 mps 755 mmHg 71%
    21:00 +14°C° 0 mm 2 mps 755 mmHg 76%
    22:00 +12°C° 0 mm 2 mps 755 mmHg 81%
    23:00 +12°C° 0 mm 2 mps 755 mmHg 85%

    Tomorrow, 26 May, Sunday

    Time Temperature Precipitation Wind Pressure Humidity
    00:00 +11°C° 0 mm 1 mps 755 mmHg 88%
    01:00 +10°C° 0 mm 1 mps 755 mmHg 91%
    02:00 +10°C° 0 mm 1 mps 755 mmHg 92%
    03:00 +9°C° 0 mm 2 mps 755 mmHg 92%
    04:00 +9°C° 0 mm 2 mps 755 mmHg 93%
    05:00 +10°C° 0 mm 2 mps 755 mmHg 87%
    06:00 +12°C° 0 mm 3 mps 755 mmHg 82%
    07:00 +14°C° 0 mm 3 mps 755 mmHg 76%
    08:00 +15°C° 0 mm 4 mps 755 mmHg 70%
    09:00 +18°C° 0 mm 4 mps 754 mmHg 63%
    10:00 +19°C° 0 mm 4 mps 754 mmHg 56%
    11:00 +20°C° 0 mm 5 mps 754 mmHg 53%
    12:00 +21°C° 0 mm 5 mps 754 mmHg 49%
    13:00 +22°C° 0 mm 6 mps 753 mmHg 46%
    14:00 +22°C° 0 mm 6 mps 753 mmHg 47%
    15:00 +22°C° 0 mm 6 mps 753 mmHg 47%
    16:00 +22°C° 0 mm 5 mps 752 mmHg 48%
    17:00 +21°C° 0 mm 4 mps 752 mmHg 54%
    18:00 +20°C° 0 mm 3 mps 752 mmHg 60%
    19:00 +19°C° 0 mm 3 mps 752 mmHg 66%
    20:00 +18°C° 0 mm 3 mps 752 mmHg 70%
    21:00 +17°C° 0 mm 2 mps 752 mmHg 73%
    22:00 +16°C° 0 mm 2 mps 752 mmHg 77%
    23:00 +14°C° 0 mm 3 mps 752 mmHg 79%

    Day after tomorrow, 27 May, Monday

    Time Temperature Precipitation Wind Pressure Humidity
    00:00 +14°C° 0 mm 3 mps 752 mmHg 81%
    01:00 +13°C° 0 mm 3 mps 752 mmHg 84%
    02:00 +13°C° 0 mm 3 mps 751 mmHg 83%
    03:00 +13°C° 0 mm 3 mps 751 mmHg 82%
    04:00 +13°C° 0 mm 3 mps 751 mmHg 81%
    05:00 +15°C° 0 mm 4 mps 751 mmHg 77%
    06:00 +16°C° 0 mm 5 mps 751 mmHg 73%
    07:00 +19°C° 0 mm 5 mps 751 mmHg 69%
    08:00 +20°C° 0 mm 5 mps 751 mmHg 66%
    09:00 +21°C° 0 mm 6 mps 751 mmHg 63%
    10:00 +22°C° 0 mm 6 mps 751 mmHg 60%
    11:00 +23°C° 0.3 mm 5 mps 750 mmHg 60%
    12:00 +23°C° 0.3 mm 5 mps 750 mmHg 60%
    13:00 +23°C° 0.3 mm 5 mps 750 mmHg 61%
    14:00 +23°C° 0.7 mm 4 mps 750 mmHg 65%
    15:00 +22°C° 0.7 mm 4 mps 750 mmHg 69%
    16:00 +22°C° 0.7 mm 4 mps 750 mmHg 74%
    17:00 +21°C° 0.9 mm 3 mps 750 mmHg 78%
    18:00 +20°C° 0.9 mm 2 mps 750 mmHg 82%
    19:00 +19°C° 0.9 mm 2 mps 750 mmHg 87%
    20:00 +19°C° 0.1 mm 1 mps 750 mmHg 89%
    21:00 +18°C° 0.1 mm 1 mps 750 mmHg 91%
    22:00 +16°C° 0.1 mm 1 mps 750 mmHg 93%
    23:00 +15°C° 0 mm 1 mps 750 mmHg 93%

    28 May, Tuesday

    Time Temperature Precipitation Wind Pressure Humidity
    00:00 +15°C° 0 mm 1 mps 750 mmHg 94%
    01:00 +15°C° 0 mm 1 mps 750 mmHg 94%
    02:00 +14°C° 0 mm 1 mps 750 mmHg 94%
    03:00 +14°C° 0 mm 1 mps 750 mmHg 95%
    04:00 +13°C° 0 mm 1 mps 750 mmHg 95%
    05:00 +14°C° 0 mm 2 mps 750 mmHg 93%
    06:00 +15°C° 0 mm 2 mps 750 mmHg 92%
    07:00 +16°C° 0 mm 2 mps 750 mmHg 90%
    08:00 +16°C° 0.5 mm 2 mps 750 mmHg 91%
    09:00 +16°C° 0.5 mm 2 mps 750 mmHg 92%
    10:00 +15°C° 0.5 mm 2 mps 750 mmHg 93%
    11:00 +16°C° 0.9 mm 2 mps 750 mmHg 91%
    12:00 +16°C° 0.9 mm 2 mps 750 mmHg 90%
    13:00 +16°C° 0.9 mm 2 mps 750 mmHg 88%
    14:00 +16°C° 0.5 mm 1 mps 750 mmHg 89%
    15:00 +16°C° 0.5 mm 1 mps 750 mmHg 89%
    16:00 +15°C° 0.5 mm 1 mps 750 mmHg 89%
    17:00 +15°C° 0.1 mm 1 mps 750 mmHg 90%
    18:00 +15°C° 0.1 mm 1 mps 750 mmHg 91%
    19:00 +15°C° 0.1 mm 1 mps 750 mmHg 91%
    20:00 +15°C° 0.1 mm 1 mps 751 mmHg 91%
    21:00 +14°C° 0.1 mm 1 mps 751 mmHg 91%
    22:00 +14°C° 0.1 mm 2 mps 752 mmHg 92%
    23:00 +14°C° 0 mm 2 mps 752 mmHg 93%

    29 May, Wednesday

    Time Temperature Precipitation Wind Pressure Humidity
    00:00 +13°C° 0 mm 2 mps 752 mmHg 94%
    01:00 +13°C° 0 mm 2 mps 753 mmHg 96%
    02:00 +13°C° 0 mm 2 mps 753 mmHg 96%
    03:00 +13°C° 0 mm 2 mps 753 mmHg 96%
    04:00 +11°C° 0 mm 3 mps 754 mmHg 96%
    05:00 +11°C° 0.1 mm 3 mps 754 mmHg 93%
    06:00 +11°C° 0.1 mm 4 mps 755 mmHg 91%
    07:00 +11°C° 0.1 mm 4 mps 756 mmHg 89%
    08:00 +12°C° 0 mm 4 mps 756 mmHg 84%
    09:00 +12°C° 0 mm 4 mps 757 mmHg 80%
    10:00 +13°C° 0 mm 5 mps 757 mmHg 76%
    11:00 +14°C° 0 mm 5 mps 757 mmHg 71%
    12:00 +14°C° 0 mm 4 mps 757 mmHg 66%
    13:00 +15°C° 0 mm 4 mps 757 mmHg 61%
    14:00 +15°C° 0 mm 4 mps 758 mmHg 59%
    15:00 +17°C° 0 mm 4 mps 758 mmHg 56%
    16:00 +17°C° 0 mm 4 mps 758 mmHg 53%
    17:00 +16°C° 0 mm 3 mps 758 mmHg 56%
    18:00 +14°C° 0 mm 3 mps 759 mmHg 59%
    19:00 +13°C° 0 mm 3 mps 759 mmHg 62%
    20:00 +13°C° 0 mm 2 mps 760 mmHg 63%
    21:00 +12°C° 0 mm 2 mps 760 mmHg 65%
    22:00 +9°C° 0 mm 2 mps 761 mmHg 67%
    23:00 +10°C° 0 mm 1 mps 761 mmHg 69%

    30 May, Thursday

    Time Temperature Precipitation Wind Pressure Humidity
    00:00 +9°C° 0 mm 1 mps 761 mmHg 71%
    01:00 +8°C° 0 mm 1 mps 761 mmHg 73%
    02:00 +8°C° 0 mm 1 mps 761 mmHg 75%
    03:00 +8°C° 0 mm 1 mps 762 mmHg 77%
    04:00 +7°C° 0 mm 1 mps 762 mmHg 79%
    05:00 +9°C° 0 mm 1 mps 762 mmHg 75%
    06:00 +11°C° 0 mm 1 mps 762 mmHg 70%
    07:00 +12°C° 0 mm 2 mps 762 mmHg 66%
    08:00 +14°C° 0 mm 2 mps 761 mmHg 60%
    09:00 +15°C° 0 mm 2 mps 761 mmHg 54%
    10:00 +17°C° 0 mm 2 mps 761 mmHg 48%
    11:00 +18°C° 0 mm 2 mps 760 mmHg 46%
    12:00 +19°C° 0 mm 3 mps 760 mmHg 43%
    13:00 +19°C° 0 mm 3 mps 759 mmHg 41%
    14:00 +20°C° 0 mm 3 mps 759 mmHg 41%
    15:00 +20°C° 0 mm 3 mps 758 mmHg 42%
    16:00 +20°C° 0 mm 3 mps 757 mmHg 43%
    17:00 +19°C° 0 mm 3 mps 757 mmHg 50%
    18:00 +18°C° 0 mm 3 mps 757 mmHg 57%
    19:00 +17°C° 0 mm 3 mps 757 mmHg 65%
    20:00 +14°C° 0 mm 3 mps 757 mmHg 69%
    21:00 +13°C° 0 mm 3 mps 757 mmHg 74%
    22:00 +12°C° 0 mm 3 mps 756 mmHg 79%
    23:00 +11°C° 0 mm 3 mps 756 mmHg 78%
    Show more